Wind_Speed
14 15 14 13 14 14 14 14 15 16 15 16 16 15 13 13 14 14 14 15 14 13 13 13 13 13 12 12 12 11 11 11 11 10 9 9 9 9 9 9 8 8 7 6
15 15 14 15 15 15 15 16 16 16 16 16 17 16 14 14 15 14 14 14 14 14 13 13 13 13 13 12 12 13 12 12 11 10 9 9 9 10 9 8 8 8 7 7
16 15 15 16 16 17 16 17 17 17 17 17 17 17 16 15 15 15 14 14 14 14 14 14 14 13 12 12 12 13 13 11 11 10 10 10 10 9 9 8 7 6 6 6
17 16 17 17 17 18 18 17 17 18 17 16 17 18 17 16 16 16 16 15 14 14 14 14 14 13 12 12 12 12 11 10 10 10 10 10 9 9 8 8 8 6 5 6
18 18 19 19 18 18 18 17 18 17 17 17 17 19 18 17 16 17 16 16 15 15 15 15 14 13 12 12 12 12 11 11 10 10 10 10 9 9 8 8 7 7 6 6
19 19 20 19 19 19 19 18 17 17 17 18 17 19 19 17 17 17 17 16 15 15 15 15 14 13 12 12 12 12 11 11 11 10 9 9 9 8 8 8 7 7 7 6
20 20 20 20 20 20 19 18 17 17 17 18 18 20 20 17 18 17 17 16 15 15 15 14 14 14 13 12 12 11 11 10 10 9 8 8 8 7 7 7 7 7 7 6
21 21 20 20 20 20 19 19 18 17 18 20 20 20 19 18 18 17 17 16 15 15 14 14 14 13 13 12 12 11 11 10 10 9 8 8 7 6 6 5 6 6 6 7
21 22 20 21 21 20 20 20 19 19 19 20 21 21 20 18 17 17 17 17 16 15 15 14 14 13 12 12 12 11 11 10 10 9 9 8 8 7 7 6 6 6 6 6
22 23 21 22 21 21 21 20 20 20 20 20 20 21 20 17 18 18 17 17 16 16 15 15 13 12 12 12 12 11 11 11 10 10 10 10 9 8 8 7 7 7 6 7
23 24 22 22 22 21 21 21 21 21 21 20 20 21 20 19 19 20 18 17 16 16 15 15 14 13 12 12 12 12 11 11 10 10 10 10 10 9 8 8 7 7 7 8
23 24 23 22 21 21 22 22 23 23 22 22 21 22 20 19 20 21 19 18 17 16 15 15 14 13 12 12 12 11 11 11 11 10 10 10 10 9 9 9 8 8 7 8
23 24 24 23 23 22 23 24 24 24 24 23 23 22 20 19 20 20 19 18 17 16 15 15 14 13 12 12 12 11 10 11 10 10 10 9 9 9 9 9 9 9 9 8
25 25 25 25 24 24 24 24 25 25 26 25 24 23 22 20 21 20 19 18 18 17 16 15 14 14 13 12 11 11 11 11 10 10 10 10 10 10 9 9 9 9 9 9
26 26 25 25 25 26 25 25 25 26 26 27 26 25 24 22 21 20 20 19 18 17 16 15 15 15 14 12 11 10 10 10 10 9 9 10 9 9 9 9 8 9 9 9
26 26 26 25 25 26 26 26 27 27 27 27 27 25 23 23 23 23 22 20 19 18 17 16 16 16 14 13 12 11 10 10 10 9 9 10 10 10 9 9 9 9 10 10
26 25 26 25 25 27 27 25 27 26 26 27 26 25 24 24 23 23 23 22 20 19 18 18 17 17 16 14 13 12 11 11 11 10 10 10 10 10 10 10 10 10 10 10
24 24 25 25 25 27 24 24 25 26 25 26 26 25 25 24 24 23 23 22 21 20 19 18 18 17 16 15 14 13 12 12 12 12 11 11 11 11 11 11 11 11 11 11
23 24 24 24 25 26 23 23 24 25 25 25 25 24 24 24 25 24 23 23 22 22 21 20 19 18 17 16 15 14 14 13 13 12 12 12 12 12 12 12 12 12 12 12
24 23 24 25 25 25 22 22 22 24 25 24 25 24 23 23 24 23 22 23 23 23 22 21 20 19 18 17 16 15 15 14 14 14 13 13 13 13 12 12 13 13 13 13
24 24 24 25 25 25 21 21 23 23 23 23 24 24 24 23 24 22 22 23 23 24 23 22 20 20 19 18 17 17 16 16 15 15 14 14 14 14 14 13 13 13 14 14
25 24 24 25 25 24 21 22 23 23 22 23 23 24 25 24 24 24 24 23 23 24 24 23 21 20 20 19 18 17 17 17 16 16 15 15 15 15 15 15 14 14 14 15
25 25 25 26 25 25 24 23 23 23 23 24 24 24 25 25 24 24 24 24 24 24 24 24 23 22 21 20 19 18 17 17 17 16 16 16 16 16 16 16 15 15 15 15
26 26 25 26 25 26 26 24 24 25 25 26 26 25 26 25 24 24 24 25 25 25 24 24 24 23 22 22 21 20 19 18 18 18 18 17 17 17 17 16 16 16 17 17
27 27 27 26 26 27 27 27 26 27 27 27 27 27 26 25 25 25 26 26 26 25 25 25 25 24 23 24 23 22 20 20 20 19 19 18 17 17 17 17 17 17 17 17
27 27 27 27 27 28 27 28 29 27 27 28 28 28 27 26 26 26 27 27 26 26 26 26 26 26 25 25 25 24 22 22 21 20 20 19 19 18 18 18 18 18 18 18
Wind_Direction
261 261 263 266 268 270 270 270 271 274 278 280 281 283 285 286 291 292 293 297 301 301 301 304 304 302 301 303 304 305 302 301 300 298 294 290 290 291 292 292 286 279 273 264
260 262 264 265 266 267 267 266 268 271 273 278 280 280 279 280 284 288 291 296 299 300 301 302 303 301 301 301 305 303 300 296 296 294 292 290 288 287 286 287 283 277 272 265
262 265 264 264 265 266 265 265 264 269 274 275 276 277 278 279 280 286 291 295 295 298 300 301 303 301 299 300 301 306 301 295 293 292 292 291 289 285 283 280 279 274 261 255
263 263 263 263 264 265 265 264 264 265 269 272 275 276 276 278 279 286 291 294 296 297 298 299 299 300 299 299 300 302 300 297 293 289 288 288 290 287 280 275 273 263 254 247
262 261 262 262 263 264 265 265 264 264 266 269 271 275 277 280 281 285 288 292 294 293 295 296 297 298 298 298 299 300 297 296 295 290 286 282 284 284 276 272 266 256 254 248
262 262 261 261 261 262 264 262 260 261 264 266 269 273 275 277 282 285 286 290 293 292 293 294 295 297 297 298 297 297 296 294 291 287 286 282 282 282 273 267 264 256 249 247
262 261 260 260 261 261 259 259 259 259 262 266 270 270 274 278 280 283 286 290 292 292 291 291 293 293 294 295 295 295 295 293 288 283 281 283 281 280 275 267 255 250 244 240
264 262 261 261 260 259 257 255 254 254 257 260 264 267 274 278 279 281 284 287 290 289 288 289 292 292 292 293 293 291 291 290 285 279 276 279 276 275 276 267 252 245 238 239
264 264 261 261 257 257 256 253 253 252 255 257 261 268 271 275 278 279 280 283 288 288 288 288 290 290 289 290 291 289 286 287 283 278 275 273 271 269 267 261 249 243 240 240
261 263 260 260 259 256 255 254 250 248 250 251 257 263 267 272 275 277 276 280 284 285 286 285 286 288 287 286 285 285 284 284 281 275 270 267 270 267 260 256 249 248 237 236
260 261 260 259 259 258 254 250 249 250 249 248 252 258 264 267 271 275 278 280 281 282 282 284 284 285 284 283 280 278 279 281 279 276 269 266 266 265 259 256 250 244 240 240
261 262 262 260 259 258 256 252 248 249 248 247 250 256 261 264 267 271 274 276 276 278 279 280 281 283 283 283 278 276 274 278 280 275 270 265 265 266 260 252 253 245 238 239
260 259 261 261 259 255 252 249 248 249 248 248 250 256 259 260 263 266 269 271 272 275 274 275 278 279 280 280 278 276 276 275 276 271 267 263 261 262 260 251 252 247 239 239
259 259 261 262 263 261 256 252 251 250 248 248 249 253 255 258 261 264 267 268 267 269 270 271 274 275 276 277 276 275 274 273 273 268 264 259 257 258 260 255 249 244 242 242
259 260 260 260 260 260 260 255 253 251 250 251 251 252 253 254 258 261 264 265 263 263 265 266 269 271 272 273 272 272 272 271 267 265 259 257 258 257 255 253 247 240 241 242
260 260 259 258 260 259 257 255 254 253 251 250 251 253 253 254 253 257 259 261 262 261 261 262 264 266 268 270 267 267 267 267 263 261 256 257 254 253 254 250 246 239 237 242
260 260 261 259 260 261 257 256 255 255 253 251 252 252 253 254 254 254 255 256 258 258 258 259 261 262 263 265 265 264 261 259 258 258 259 257 253 251 251 251 248 242 240 243
259 259 262 262 261 262 263 259 257 255 252 251 253 253 252 253 252 253 252 252 253 254 255 255 258 259 259 261 262 262 259 256 259 258 254 253 253 252 248 247 247 246 245 245
259 261 262 262 262 264 263 260 258 257 254 252 253 253 252 251 254 252 251 251 251 252 254 255 256 255 255 256 257 258 258 256 259 255 251 252 252 251 249 249 248 247 247 245
258 260 261 260 261 264 266 264 260 260 256 253 252 250 249 249 252 253 252 250 250 251 252 253 255 253 253 254 254 254 255 254 254 252 252 251 250 249 251 251 250 249 249 248
258 258 258 259 261 264 265 264 260 259 260 257 252 250 250 249 249 252 251 250 250 250 251 251 252 251 250 251 252 251 251 251 251 251 251 252 250 250 251 253 252 251 250 251
259 259 259 259 261 263 265 262 258 261 260 257 252 249 248 247 249 250 251 250 250 252 252 252 250 247 247 248 250 250 248 249 249 250 250 250 251 252 252 253 252 252 252 253
259 259 260 260 262 265 264 260 256 256 257 258 255 253 251 249 250 250 251 249 250 251 253 252 251 248 245 245 247 247 248 248 247 248 249 249 251 252 253 253 253 253 253 256
258 259 260 261 260 261 262 260 258 256 255 254 254 255 255 252 251 253 250 248 249 252 253 252 250 248 245 243 245 245 246 247 246 248 249 250 252 251 250 252 254 255 256 256
259 260 261 262 262 259 259 260 259 257 255 253 252 253 254 252 251 252 251 249 249 251 251 249 246 245 244 243 244 245 245 246 247 248 249 251 252 251 250 253 257 257 259 258
258 260 262 262 262 261 258 258 259 259 256 253 252 254 253 252 252 253 253 251 250 249 249 248 246 245 243 243 243 243 243 244 246 247 248 250 251 252 252 254 257 259 259 259
Height
5854 5856 5856 5857 5857 5858 5858 5858 5858 5858 5858 5857 5857 5858 5858 5857 5857 5856 5856 5855 5855 5854 5853 5852 5851 5851 5850 5849 5848 5847 5846 5845 5845 5844 5844 5844 5843 5843 5843 5843 5842 5842 5843 5843
5852 5852 5853 5853 5854 5854 5854 5855 5855 5855 5855 5854 5854 5854 5855 5855 5854 5854 5853 5853 5852 5851 5851 5850 5850 5849 5848 5847 5846 5845 5844 5844 5843 5843 5842 5842 5842 5841 5841 5841 5841 5841 5841 5842
5848 5850 5849 5849 5850 5850 5850 5851 5851 5852 5851 5851 5851 5851 5851 5851 5851 5851 5851 5851 5850 5849 5849 5848 5847 5846 5846 5845 5844 5843 5842 5841 5841 5841 5840 5840 5840 5840 5840 5840 5840 5840 5840 5841
5843 5845 5845 5845 5846 5846 5846 5847 5847 5848 5848 5848 5848 5847 5848 5848 5848 5848 5848 5848 5847 5847 5846 5846 5845 5844 5843 5843 5842 5841 5840 5839 5839 5838 5838 5838 5838 5838 5838 5838 5838 5838 5839 5840
5839 5840 5840 5841 5842 5842 5842 5843 5844 5844 5844 5844 5844 5844 5845 5845 5845 5845 5845 5845 5845 5844 5844 5843 5842 5841 5841 5840 5839 5839 5838 5837 5837 5836 5836 5836 5836 5836 5836 5836 5837 5837 5838 5838
5834 5835 5835 5837 5837 5838 5838 5839 5839 5839 5839 5840 5841 5841 5841 5842 5842 5842 5842 5842 5842 5841 5841 5840 5839 5838 5838 5837 5837 5836 5836 5835 5835 5834 5834 5834 5834 5834 5834 5835 5835 5836 5837 5837
5829 5830 5830 5831 5832 5833 5834 5835 5835 5835 5835 5836 5838 5837 5838 5839 5839 5839 5839 5839 5839 5838 5838 5837 5836 5836 5835 5835 5834 5834 5833 5833 5833 5832 5832 5832 5832 5833 5833 5833 5834 5834 5835 5836
5823 5825 5826 5826 5827 5828 5829 5830 5831 5832 5833 5833 5834 5833 5835 5836 5835 5836 5836 5836 5835 5835 5834 5834 5833 5833 5832 5832 5832 5831 5831 5831 5831 5830 5830 5831 5831 5831 5831 5832 5832 5833 5834 5835
5818 5819 5820 5820 5821 5823 5823 5824 5826 5828 5828 5829 5829 5830 5831 5832 5832 5832 5832 5832 5832 5831 5831 5831 5830 5830 5830 5829 5829 5829 5828 5828 5828 5828 5828 5828 5829 5829 5830 5830 5831 5832 5832 5833
5812 5813 5815 5815 5816 5817 5819 5820 5821 5822 5823 5824 5826 5826 5827 5828 5828 5828 5828 5828 5828 5828 5828 5827 5827 5827 5827 5827 5827 5826 5826 5826 5826 5826 5826 5826 5826 5827 5828 5829 5829 5830 5831 5832
5806 5807 5809 5810 5810 5811 5813 5815 5815 5817 5818 5820 5821 5824 5823 5824 5824 5824 5824 5825 5825 5825 5824 5824 5824 5824 5824 5824 5824 5824 5824 5824 5824 5824 5824 5824 5825 5825 5826 5827 5828 5828 5829 5831
5801 5801 5802 5804 5805 5806 5807 5808 5810 5812 5813 5814 5815 5820 5819 5819 5820 5820 5820 5821 5821 5821 5821 5821 5821 5821 5821 5821 5821 5821 5821 5821 5821 5821 5822 5822 5823 5823 5824 5825 5826 5827 5828 5829
5795 5796 5796 5798 5800 5800 5800 5801 5803 5805 5807 5808 5810 5814 5814 5814 5814 5815 5816 5816 5817 5817 5817 5817 5818 5818 5818 5818 5818 5818 5818 5818 5818 5819 5819 5820 5821 5821 5822 5823 5824 5825 5826 5827
5788 5789 5791 5792 5792 5792 5793 5795 5796 5798 5800 5802 5804 5806 5808 5809 5810 5810 5811 5812 5813 5813 5813 5814 5814 5814 5815 5815 5815 5815 5815 5815 5816 5816 5817 5818 5818 5819 5820 5820 5821 5822 5824 5825
5781 5783 5783 5784 5784 5785 5786 5788 5789 5790 5792 5795 5798 5799 5802 5804 5804 5805 5806 5807 5808 5809 5810 5810 5811 5811 5811 5811 5812 5812 5812 5813 5813 5814 5815 5815 5816 5817 5817 5818 5819 5820 5822 5823
5774 5775 5776 5777 5778 5778 5779 5781 5782 5784 5786 5788 5790 5793 5796 5797 5798 5799 5800 5802 5803 5804 5805 5806 5807 5807 5808 5808 5808 5809 5809 5810 5811 5811 5812 5813 5814 5814 5815 5816 5817 5818 5819 5821
5767 5768 5769 5770 5771 5770 5772 5775 5775 5777 5779 5781 5783 5787 5788 5790 5792 5793 5794 5796 5798 5799 5800 5801 5802 5803 5804 5805 5805 5805 5806 5807 5808 5809 5809 5810 5811 5812 5813 5814 5815 5816 5817 5818
5760 5761 5761 5762 5764 5763 5768 5768 5768 5770 5772 5774 5776 5778 5781 5783 5784 5786 5788 5790 5792 5794 5795 5796 5797 5798 5799 5800 5801 5802 5803 5804 5805 5806 5807 5808 5809 5809 5810 5811 5812 5814 5815 5816
5753 5754 5755 5756 5756 5757 5761 5762 5762 5763 5765 5768 5769 5771 5774 5776 5777 5780 5781 5784 5786 5788 5790 5791 5792 5794 5795 5796 5797 5798 5799 5800 5801 5802 5804 5805 5806 5807 5808 5809 5810 5811 5812 5813
5747 5748 5749 5749 5749 5750 5755 5756 5755 5757 5758 5760 5761 5763 5766 5768 5771 5773 5775 5777 5780 5782 5784 5785 5787 5789 5790 5792 5793 5794 5795 5797 5798 5799 5800 5801 5803 5804 5805 5806 5807 5808 5809 5810
5741 5742 5742 5743 5743 5744 5748 5748 5749 5751 5753 5754 5755 5757 5759 5762 5765 5767 5769 5771 5773 5775 5778 5780 5782 5784 5785 5787 5788 5789 5791 5792 5794 5795 5797 5798 5799 5800 5801 5803 5804 5805 5806 5807
5734 5735 5736 5736 5737 5741 5741 5742 5743 5745 5746 5747 5748 5751 5753 5756 5758 5760 5762 5765 5767 5769 5771 5774 5776 5778 5780 5781 5783 5785 5786 5788 5789 5791 5792 5794 5795 5796 5798 5799 5800 5801 5802 5804
5727 5729 5729 5730 5733 5733 5733 5734 5736 5736 5738 5740 5742 5744 5746 5749 5752 5754 5757 5759 5761 5763 5765 5767 5770 5772 5774 5776 5778 5780 5781 5783 5785 5786 5788 5790 5791 5792 5794 5795 5796 5798 5799 5800
5720 5721 5721 5722 5724 5725 5726 5726 5728 5730 5731 5733 5735 5737 5739 5742 5745 5747 5750 5752 5754 5756 5758 5761 5763 5765 5768 5770 5772 5774 5776 5778 5780 5782 5783 5785 5786 5788 5789 5791 5792 5793 5795 5795
5712 5713 5714 5715 5717 5718 5719 5719 5721 5722 5724 5726 5728 5730 5732 5735 5737 5739 5742 5744 5747 5749 5751 5754 5756 5759 5761 5763 5766 5768 5771 5772 5774 5777 5778 5780 5781 5783 5785 5786 5788 5789 5790 5791
5704 5705 5706 5708 5709 5709 5711 5711 5712 5714 5716 5718 5721 5723 5725 5727 5729 5732 5734 5737 5739 5742 5744 5746 5749 5751 5754 5757 5759 5762 5765 5767 5769 5771 5773 5775 5776 5778 5780 5781 5783 5784 5785 5786